COSMOS 249 DEB, 3584

Orbit data source: Space-Track

COSMOS 249 DEB, 3584 is space debris in LEO originally from a launch on Sun, 20 Oct 1968 UTC launched from the Tyuratam Missile And Space Complex (TTMTR). Debris objects in space refer to the collection of defunct objects orbiting the Earth. Examples of debris include non-operational satellites, rocket bodies, and fragments generated from explosions, collisions, or faulty payload assembly.

Loading next visibility...
Identifier
3584, 1968-091S
Orbit
LEO
Country
Flag of CISCIS
Related business
Manufacturer
Unknown
Mission
Spacecraft
Bus & Motor
Unknown
Mass
Unknown
Launch date (UTC)
1968-10-20 (58 years ago)
Launch vehicle
Unknown
Launch site
Tyuratam Missile And Space Complex (TTMTR)
Object type
Payload
Rocket body
Debris
Shape & HBR
Unknown shape, 0.1 m
Radar Cross Section
Medium (>0.1 m² and <1 m²)

Expand to show TLE details & history
Last TLE update: 16 hours ago

TLE from 16 hours ago
0 COSMOS 249 DEB
1 03584U 68091S   26253.64880307  .00005438  00000-0  64084-3 0  9993
2 03584  62.2936  55.1661 0252756 243.9715 113.5139 14.65640707875421
Epoch: 2026-09-10T15:34Z
TLE epoch observation values (Epoch: 2026-09-10T15:34:16.585Z)
Latitude
-0.00004°
Longitude
-168.08651°
Altitude
751.649 km
Speed
7.44 km/s
True Right ascension
03h 40m 39s
True Declination
0° 00' 00"
Sunlit
Object was in daylight at epoch
Visualization orbit readout
Latitude
Unknown
Longitude
Unknown
Altitude
Unknown
Speed
Unknown
Apparent Right ascension
Unknown
Apparent Declination
Unknown
Sunlit
N/A
Visualization observer readout
Local Sidereal Time
23:45:43
Azimuth
Unknown
Elevation
Unknown
Doppler factor
Unknown
Orbital elements
Apogee altitude
852.17 km
Perigee altitude
495.68 km
Semi-major axis
7,052.062 km
Eccentricity
0.02528
Inclination
62.2936°
RAAN
55.1661°
Arg. of periapsis
243.9715°
True anomaly
116.13577°
Mean anomaly
113.5139°
Eccentric anomaly
114.82823°
Mean motion
3.66496 °/min
Orbital period
98.23 mins
BSTAR
0.00064084
Loading maneuver chart data...
Computing Atmospheric mass density...

Documentation

Showing up to 5 results
|